{"data":{"norad_id":51977,"epoch":"2026-09-20T03:08:05.940384Z","epoch_age_seconds":88080,"freshness":"FRESH","line1":"1 51977U 22025X   26263.13062431  .00023132  00000+0  75441-3 0  9993","line2":"2 51977  53.1590 212.6114 0001619  99.6153 260.5032 15.31720049250873","mean_motion":15.31720049,"eccentricity":0.0001619,"inclination_deg":53.159,"raan_deg":212.6114,"arg_perigee_deg":99.6153,"mean_anomaly_deg":260.5032,"bstar":0.00075441,"rev_number":25087,"period_min":94.011957403059,"perigee_km":469.57140734214,"apogee_km":471.78905436148,"semimajor_km":6848.8172308518,"source":"CELESTRAK","updated_at":"2026-09-20T09:00:39.978910Z"}}